User: anonymous   Login
Location: Enid
(36.3960°N, 97.8780°W)
Time: 15:38:42
(UTC-05:00)
Language:

Hubble Space Telescope - Orbit

View from above orbital plane
View from above orbital plane
View from above satellite
View from above satellite

Ground track
Ground track

The orbit data is extracted from the following two-line orbital elements,

1 20580U 90037B   16127.56402801  .00000913  00000-0  46102-4 0  9997
2 20580  28.4691 173.5821 0002967 118.5332  34.4243 15.08336768228820
Epoch (UTC): 06 May 2016 13:32:12
Eccentricity: 0.0002967
inclination: 28.4691°
perigee height: 539 km
apogee height: 543 km
right ascension of ascending node: 173.5821°
argument of perigee: 118.5332°
revolutions per day: 15.08336768
mean anomaly at epoch: 34.4243°
orbit number at epoch: 22882

The dashed part of the orbit path shows where the satellite is in the earth's shadow,  

DLR